EHI
0 0 0 0 0 0 0 0 0 1 3 8 13 15 18 27 36 45 57 66 73 84 93 95 94 95 94 90 86 85 85 82 78 74 69 63 59 55 51 48 45 43 39 36
0 0 0 0 0 0 0 0 0 2 5 9 14 17 22 29 38 48 60 70 77 86 93 94 93 93 92 90 87 85 83 81 78 75 70 64 61 58 53 49 45 40 37 36
0 0 0 0 0 0 1 1 2 4 8 14 19 24 30 36 42 53 64 74 81 86 90 92 92 90 89 89 89 87 83 80 77 75 71 66 63 61 56 53 49 43 38 36
0 0 0 0 0 1 2 3 5 7 13 21 26 32 39 44 49 57 66 74 80 84 87 90 91 89 88 89 89 89 86 82 78 74 70 67 64 62 60 58 55 50 42 36
0 0 0 0 0 1 3 5 8 12 18 25 30 35 42 49 56 64 69 73 77 79 83 88 91 90 89 89 90 90 88 85 81 75 68 65 63 62 62 62 58 51 43 36
0 0 0 1 1 2 3 7 13 19 25 30 36 42 50 56 63 71 74 75 75 75 79 86 90 89 88 88 88 87 85 84 81 75 68 64 62 61 62 61 55 48 41 35
0 0 1 3 4 8 14 21 27 32 37 43 52 61 66 68 72 75 76 75 74 74 79 84 86 86 86 85 83 80 79 78 76 71 66 63 62 62 60 57 53 48 41 36
1 4 9 14 17 25 37 43 45 48 53 59 67 74 76 76 77 78 76 74 71 72 75 78 79 80 80 79 77 75 74 73 71 66 61 60 61 60 58 56 52 48 42 37
10 15 24 31 35 43 53 57 56 57 61 65 70 73 73 75 78 78 74 71 68 68 69 70 72 73 72 71 71 73 73 71 66 61 58 56 54 53 51 50 47 43 38 34
21 26 32 36 40 45 51 54 54 56 59 62 64 66 67 70 75 77 72 66 64 64 64 65 66 68 67 67 68 69 69 65 59 55 52 47 42 38 36 36 35 33 30 27
29 31 33 34 35 37 41 45 48 51 56 57 55 56 60 64 69 71 67 60 57 57 58 59 60 61 62 63 64 64 61 54 48 45 42 37 29 22 19 19 19 19 19 17
31 32 33 34 33 33 35 38 40 44 49 49 45 45 47 50 56 60 58 52 48 47 48 50 52 53 54 55 58 57 52 44 38 37 35 30 23 13 7 6 5 6 7 7
29 29 30 30 29 30 30 29 30 32 35 37 36 35 35 36 40 44 44 40 38 39 41 43 43 43 44 45 48 48 43 37 31 27 27 25 21 14 7 2 0 0 1 1
24 25 25 24 24 24 22 20 20 22 24 26 28 29 28 27 29 32 32 30 31 33 35 36 36 34 34 35 36 37 34 29 24 20 18 19 20 17 11 4 1 1 0 0
18 21 21 21 19 18 16 14 15 18 19 20 21 23 25 24 25 26 25 25 27 28 29 30 31 31 29 27 27 29 26 22 19 16 13 14 15 14 10 5 3 2 1 1
13 16 19 19 16 13 12 12 14 16 18 18 18 19 21 23 24 24 24 24 25 24 23 24 26 27 26 24 23 23 21 16 13 12 11 11 11 10 7 5 4 3 3 2
9 11 14 15 13 10 10 10 13 15 16 16 16 16 16 18 21 22 21 21 22 21 19 18 19 21 21 20 19 18 16 12 9 9 9 9 8 7 5 5 3 2 2 2
4 5 8 9 8 6 6 7 9 11 11 12 12 11 10 12 15 17 16 16 18 19 17 13 12 14 16 16 15 14 13 10 8 6 6 6 5 4 4 3 1 1 1 1
2 3 4 5 4 3 2 3 4 4 4 5 6 7 7 8 11 12 12 13 14 15 13 9 7 9 11 11 10 10 10 9 7 5 5 4 3 3 3 1 0 0 0 1
2 2 3 3 2 1 1 1 1 1 1 1 2 3 4 6 8 9 10 10 10 10 8 5 3 4 6 6 6 7 7 6 5 5 5 3 2 2 2 1 0 0 0 1
1 1 1 1 1 0 0 0 0 1 1 1 0 1 3 6 6 6 7 7 6 5 4 2 1 1 2 3 4 5 4 4 4 4 3 2 1 1 1 0 0 0 0 0
0 0 0 0 0 0 0 0 0 1 1 1 1 2 4 7 6 5 5 5 5 4 3 1 0 0 0 1 3 3 3 3 3 3 2 1 0 0 0 0 0 0 0 0
0 0 0 0 0 0 0 0 0 0 0 0 1 4 8 9 7 5 4 3 4 3 2 1 0 0 0 0 1 2 1 1 2 2 2 1 0 0 0 0 0 0 0 0
0 0 0 0 0 0 0 0 1 1 1 2 3 6 8 9 8 6 3 2 1 1 1 0 0 0 0 0 1 1 0 0 1 1 1 1 0 0 0 0 0 0 0 0
0 0 0 0 0 0 0 0 1 1 2 3 4 4 5 6 7 7 5 3 1 0 0 0 0 0 0 0 0 0 0 0 0 0 1 1 0 0 0 0 0 0 0 0
0 0 0 0 0 0 0 0 0 1 1 2 2 2 3 4 6 8 7 3 1 0 1 0 0 0 0 0 0 0 0 1 1 1 1 1 0 0 0 0 0 0 0 0
0 0 0 0 0 0 0 0 0 1 0 0 0 1 2 5 7 9 7 3 0 0 1 0 0 0 0 0 0 0 0 1 2 2 1 0 0 0 0 0 0 0 0 0
Wind_Speed
18 19 17 15 16 18 17 16 15 13 11 7 6 6 5 5 6 6 6 7 6 7 7 7 7 7 7 7 8 8 8 8 7 6 5 4 4 3 3 2 2 1 1 1
17 19 20 19 17 17 17 16 17 14 10 5 4 4 4 4 5 6 5 5 5 6 7 8 8 7 7 6 7 7 7 7 7 6 5 5 4 4 3 2 1 1 1 0
15 17 20 22 18 17 16 16 16 14 9 4 3 4 5 5 3 4 4 4 4 4 5 5 7 8 7 6 7 7 7 6 7 6 6 5 5 4 3 2 2 2 1 1
13 15 21 17 16 16 15 13 12 9 4 1 2 5 6 5 2 2 3 3 2 3 3 4 5 7 7 7 7 7 7 6 6 6 5 5 4 3 3 2 2 2 2 1
12 16 19 17 14 14 13 10 8 5 3 2 2 4 6 4 3 4 3 3 2 1 3 3 3 5 6 7 7 7 6 5 5 5 5 5 4 3 3 3 2 2 2 2
12 16 17 12 10 10 10 9 4 3 2 2 2 2 3 5 5 5 4 3 3 2 3 3 3 4 6 6 5 5 5 4 4 4 4 4 3 3 2 2 2 2 2 2
16 17 15 9 9 9 11 4 1 2 1 1 2 4 5 6 6 5 5 3 4 4 3 4 3 4 5 4 4 4 4 4 4 4 4 4 3 2 2 2 2 1 1 2
14 17 13 5 6 4 3 5 4 4 5 5 6 6 6 6 5 5 4 4 4 4 5 5 4 4 4 4 4 4 5 4 4 3 3 3 3 2 2 1 1 2 2 1
7 6 3 6 6 5 5 4 5 5 6 5 5 5 5 4 5 4 4 4 4 5 6 6 5 5 5 3 3 4 4 4 4 3 2 3 3 3 2 1 1 1 1 1
4 2 1 2 3 4 5 5 5 4 4 4 4 4 4 4 4 4 5 5 5 6 6 5 5 5 5 5 4 3 4 4 4 3 3 2 1 1 1 1 1 0 0 0
4 2 1 0 2 3 4 5 5 5 5 5 5 4 4 5 4 4 4 5 4 5 5 5 5 5 5 4 3 3 3 2 3 3 4 3 3 3 2 3 2 1 1 1
3 1 1 1 1 1 2 3 4 4 4 5 5 4 4 3 3 4 4 4 4 4 4 5 5 5 4 3 3 2 2 2 1 2 3 3 5 4 7 5 6 6 5 3
3 1 0 1 1 1 1 1 2 2 3 4 4 4 3 2 3 4 5 4 3 4 4 5 5 4 3 2 2 2 1 1 0 1 2 2 3 4 3 3 4 5 5 5
5 3 1 0 2 2 1 2 2 2 2 3 3 3 3 2 2 3 3 3 3 4 4 4 4 3 2 2 1 1 1 2 1 1 1 1 2 2 3 3 3 2 2 2
5 3 1 2 2 3 2 1 0 1 1 2 2 2 3 2 1 3 3 3 3 3 3 3 3 3 1 1 1 0 0 1 0 1 1 1 1 1 1 2 2 3 3 2
5 4 3 2 1 2 2 2 1 0 1 2 2 2 2 1 1 2 3 3 2 3 3 3 2 2 1 1 0 1 1 1 0 1 0 1 1 1 2 2 2 2 2 2
5 3 3 3 2 2 2 2 1 1 0 1 1 1 1 1 1 1 1 2 2 2 2 2 2 1 1 1 1 1 1 2 2 1 1 1 1 1 2 2 2 2 2 3
3 2 3 3 2 2 2 2 1 1 0 1 1 1 0 1 1 1 1 1 2 2 2 2 2 1 1 1 1 1 0 1 1 1 1 1 1 1 2 2 2 3 3 2
3 2 3 3 3 3 3 3 2 1 1 1 1 1 1 1 2 1 1 0 1 2 2 3 1 1 1 2 2 1 1 1 2 2 1 2 1 1 2 2 2 2 2 3
3 3 3 3 3 3 3 3 2 2 1 0 0 0 0 1 2 1 1 1 2 2 2 2 0 0 1 1 2 1 0 1 2 2 1 1 1 2 2 2 3 3 2 2
2 3 3 2 3 3 3 4 3 2 2 2 1 1 1 1 2 2 2 2 3 3 2 1 0 1 2 2 1 1 2 3 3 3 2 2 3 3 3 3 3 3 3 3
3 3 3 3 3 3 3 3 2 2 2 2 3 2 1 2 2 3 3 2 2 2 1 1 1 3 3 2 2 3 4 4 3 3 3 3 3 3 3 3 3 3 3 2
3 3 3 3 3 3 3 3 3 2 2 2 2 1 1 1 1 2 2 2 3 2 1 2 3 4 3 1 2 3 4 3 3 3 3 3 3 3 2 3 3 3 2 2
2 3 3 2 2 2 2 2 2 2 1 1 1 1 2 2 2 2 3 4 5 3 3 4 4 3 2 1 1 2 3 3 3 2 2 2 2 3 3 2 2 2 3 3
2 2 2 3 2 1 1 1 1 1 1 1 1 1 1 1 2 3 4 6 5 4 4 4 2 1 1 1 2 2 3 3 3 2 2 2 3 3 3 3 3 3 3 3
2 1 1 1 2 1 1 0 0 0 1 1 1 1 2 3 4 4 4 5 6 4 3 3 2 2 1 1 2 3 3 3 3 3 4 4 4 4 3 3 4 3 3 3
1 0 0 1 1 1 1 0 1 1 1 2 2 2 2 3 4 4 4 4 4 3 3 3 2 2 2 2 2 3 3 3 4 4 4 4 3 3 3 4 3 4 4 4
Wind_Direction
264 268 261 249 236 236 237 243 252 252 239 209 168 168 156 147 146 151 151 153 155 150 150 155 157 159 165 169 166 164 162 167 168 172 174 175 171 174 176 187 208 205 231 292
260 262 263 263 252 240 241 241 246 255 258 241 149 147 133 133 147 144 150 157 156 152 154 162 164 166 167 168 160 154 162 167 164 169 169 170 170 169 175 175 168 158 172 128
259 257 259 253 252 250 242 243 247 249 253 221 172 131 130 126 141 141 149 146 150 156 160 164 170 168 169 167 158 160 166 167 167 169 169 171 173 170 174 169 169 162 159 140
256 258 251 252 255 258 255 251 247 249 250 198 115 108 102 98 109 100 117 129 135 157 153 163 174 169 166 163 161 166 171 172 167 167 164 162 165 168 167 170 177 162 171 168
252 250 251 255 253 253 255 253 253 245 225 177 200 145 113 98 100 80 76 86 95 126 143 143 153 154 152 160 163 166 166 166 165 163 161 161 167 172 171 178 177 173 165 165
248 252 250 250 257 265 258 239 256 265 208 196 210 212 117 89 87 83 59 59 72 71 83 109 109 131 144 152 151 157 155 152 144 143 147 156 168 175 171 176 177 187 165 153
242 251 254 280 286 271 249 251 314 309 26 86 35 53 70 76 78 84 83 68 75 73 70 83 92 111 135 141 144 139 130 130 137 144 155 156 153 159 166 178 178 184 150 134
238 245 248 315 299 298 356 19 31 40 57 64 77 88 83 79 79 77 80 77 84 80 74 77 78 93 110 119 121 125 128 130 138 144 156 142 142 152 154 159 178 184 177 170
244 250 357 12 17 31 33 39 40 47 64 79 85 90 89 83 81 74 70 71 79 87 83 79 77 84 94 97 105 116 120 126 127 125 113 125 152 154 159 168 205 205 191 193
273 236 42 42 24 23 28 34 37 47 67 84 89 80 75 73 75 76 73 71 75 90 91 85 81 84 93 88 89 108 126 130 135 137 131 107 87 87 87 49 347 334 60 25
258 252 237 31 32 32 26 30 34 34 46 65 85 75 68 67 62 73 85 84 81 90 99 94 90 89 87 91 102 105 114 134 156 150 138 123 92 52 62 65 40 357 15 27
257 287 285 217 159 126 58 40 35 38 45 56 71 76 70 74 75 71 77 83 88 92 100 101 98 90 86 92 105 116 134 149 172 153 142 141 126 99 53 69 66 58 49 50
320 297 317 324 12 29 64 50 48 51 66 62 59 65 69 76 84 85 83 82 85 96 100 99 96 89 81 93 107 130 148 135 262 134 151 157 148 148 136 91 73 62 54 61
331 338 216 90 12 1 15 32 36 31 63 70 70 68 63 62 81 93 90 96 95 92 101 105 105 100 92 99 119 170 180 146 178 168 181 181 164 166 165 157 148 126 93 77
325 325 354 20 8 356 356 340 276 96 74 72 71 81 71 50 74 97 100 101 102 101 95 96 98 95 94 121 135 180 208 134 186 176 181 147 143 151 127 122 121 118 109 93
316 337 354 334 328 324 323 311 276 159 79 77 69 71 81 67 66 81 98 111 114 101 95 87 77 65 54 62 102 172 124 102 203 249 205 129 137 129 116 115 111 117 124 117
304 309 330 311 323 330 327 324 294 262 214 91 87 66 89 92 74 75 114 116 115 109 108 100 83 63 34 11 290 244 169 153 186 213 126 91 114 116 118 118 112 114 108 109
277 305 315 315 320 312 307 297 290 293 331 91 91 32 353 61 87 41 25 98 113 102 80 76 72 58 49 39 332 318 208 173 179 122 106 98 89 100 103 111 114 110 110 122
299 309 307 314 311 308 314 319 322 344 29 7 44 37 36 55 69 29 320 94 99 112 94 81 41 284 76 55 325 254 235 168 131 113 111 113 149 116 107 108 107 109 117 122
305 309 296 295 311 317 318 322 327 332 348 337 31 246 37 98 105 105 92 89 81 69 84 86 132 346 55 57 314 282 108 105 108 114 117 125 118 100 99 101 100 94 94 105
309 312 313 332 339 332 329 325 321 318 316 303 274 238 180 153 156 154 152 143 107 87 88 95 34 9 28 11 271 43 62 66 74 84 84 76 76 79 75 76 76 77 72 67
332 326 334 342 341 335 330 320 306 293 289 286 274 259 207 182 173 146 126 114 122 110 142 124 68 42 19 352 72 75 72 74 74 72 71 70 70 70 67 68 76 76 70 63
322 326 334 335 332 329 327 323 308 298 294 283 275 258 203 158 150 143 141 129 123 111 90 62 56 59 29 12 74 87 87 80 76 75 76 81 85 88 84 79 77 77 74 67
316 323 322 313 304 305 315 324 322 316 295 282 254 176 168 151 140 135 124 111 102 113 95 88 87 64 11 350 64 87 97 95 95 98 101 104 107 106 98 90 83 75 69 59
312 318 316 310 306 310 325 285 261 221 193 167 157 153 162 136 130 117 116 120 127 134 124 123 124 101 316 15 72 76 87 90 89 86 76 77 84 85 79 71 67 64 59 54
310 296 305 302 309 301 292 262 164 152 157 152 128 100 101 108 116 119 125 134 139 138 134 141 156 195 200 86 86 84 85 97 98 87 73 62 63 70 71 66 67 60 58 53
258 239 244 283 319 350 354 91 136 119 123 131 130 129 130 128 128 136 140 141 147 151 145 153 161 155 123 101 87 84 83 79 79 80 80 75 68 64 65 64 59 57 50 49